Fort Dix, NJ

9:50 PM EDT on September 30, 2016 (GMT -0400)
McGuire Air Force Base

Weather History for KWRI - November, 2011

Change the Weather History Date:

Wednesday, November 23, 2011

  Actual Average Record
Temperature  
Mean Temperature 52 °F -  
Max Temperature 62 °F 52 °F 62 °F (2001)
Min Temperature 42 °F 33 °F 19 °F (2008)
Degree Days  
Heating Degree Days 13    
Growing Degree Days 2 (Base 50)    
Moisture  
Dew Point 52 °F    
Average Humidity 89    
Maximum Humidity 100    
Minimum Humidity 66    
Precipitation  
Precipitation 0.33 in - - ()
Sea Level Pressure  
Sea Level Pressure 29.69 in    
Wind  
Wind Speed 10 mph (NW)    
Max Wind Speed 25 mph    
Max Gust Speed 34 mph    
Visibility 9 miles    
Events Rain    
Averages and records for this station are not official NWS values.
T = Trace of Precipitation, MM = Missing Value Source: NWS Daily Summary

Daily Weather History Graph

Daily Weather History Graph

Search for Another Location

Airport or City:

Trip Planner

Search our weather history database for the weather conditions in past years. The results will help you decide how hot, cold, wet, or windy it might be!

Date:

Astronomy

Nov. 23, 2011 Rise Set
Actual Time 6:52 AM EST 4:36 PM EST
Civil Twilight 6:22 AM EST 5:06 PM EST
Nautical Twilight 5:49 AM EST 5:39 PM EST
Astronomical Twilight 5:17 AM EST 6:11 PM EST
Moon 4:53 AM EST (11/23) 3:16 PM EST (11/23)
Length of Visible Light 10h 43m
Length of Day
9h 44m
Waning Crescent, 4% of the Moon is Illuminated
Nov 23
Waning Crescent
Nov 25
New
Dec 2
First Quarter
Dec 10
Full
Dec 17
Last Quarter

Hourly Weather History & Observations

Time (EST) Temp. Windchill Dew Point Humidity Pressure Visibility Wind Dir Wind Speed Gust Speed Precip Events Conditions
12:15 AM 51.8 °F - 51.8 °F 100% 29.87 in 10.0 mi Variable 6.9 mph - N/A Rain Light Rain
12:25 AM 53.6 °F - 51.8 °F 94% 29.86 in 10.0 mi Calm Calm - N/A   Overcast
12:35 AM 53.6 °F - 51.8 °F 94% 29.85 in 8.0 mi ENE 6.9 mph - N/A   Overcast
12:38 AM 53.6 °F - 51.8 °F 94% 29.84 in 7.0 mi East 6.9 mph - N/A Rain Light Rain
12:49 AM 53.6 °F - 51.8 °F 94% 29.83 in 6.0 mi East 4.6 mph - N/A   Overcast
12:55 AM 53.1 °F - 52.3 °F 97% 29.83 in 5.0 mi East 5.8 mph - 0.00 in   Overcast
12:58 AM 53.6 °F - 51.8 °F 94% 29.83 in 5.0 mi East 5.8 mph - N/A   Overcast
1:15 AM 53.6 °F - 51.8 °F 94% 29.81 in 2.5 mi East 5.8 mph - N/A   Overcast
1:18 AM 53.6 °F - 51.8 °F 94% 29.80 in 2.5 mi East 5.8 mph - N/A   Overcast
1:23 AM 53.6 °F - 51.8 °F 94% 29.80 in 2.5 mi East 5.8 mph - N/A   Overcast
1:27 AM 53.6 °F - 53.6 °F 100% 29.80 in 3.0 mi East 3.5 mph - N/A   Overcast
1:50 AM 53.6 °F - 53.6 °F 100% 29.78 in 5.0 mi ESE 3.5 mph - N/A   Overcast
1:52 AM 53.6 °F - 53.6 °F 100% 29.77 in 5.0 mi East 4.6 mph - N/A   Overcast
1:55 AM 54.7 °F - 54.1 °F 98% 29.77 in 6.0 mi Variable 4.6 mph - N/A   Overcast
2:05 AM 55.4 °F - 53.6 °F 94% 29.76 in 9.0 mi ESE 3.5 mph - N/A   Mostly Cloudy
2:55 AM 60.1 °F - 59.4 °F 97% 29.71 in 10.0 mi South 12.7 mph - N/A   Partly Cloudy
3:55 AM 61.2 °F - 59.2 °F 93% 29.67 in 10.0 mi South 13.8 mph - N/A   Scattered Clouds
4:15 AM 60.8 °F - 59.0 °F 94% 29.67 in 10.0 mi South 13.8 mph - N/A Rain Light Rain
4:25 AM 60.8 °F - 59.0 °F 94% 29.67 in 10.0 mi South 13.8 mph 23.0 mph N/A Rain Light Rain
4:32 AM 62.6 °F - 59.0 °F 88% 29.67 in 10.0 mi South 13.8 mph 23.0 mph N/A Rain Light Rain
4:35 AM 62.6 °F - 59.0 °F 88% 29.67 in 8.0 mi South 15.0 mph 23.0 mph N/A Rain Light Rain
4:41 AM 62.6 °F - 59.0 °F 88% 29.66 in 6.0 mi South 17.3 mph 24.2 mph N/A Rain Rain
4:50 AM 62.6 °F - 59.0 °F 88% 29.66 in 7.0 mi SSW 18.4 mph 24.2 mph N/A Rain Light Rain
4:52 AM 62.6 °F - 59.0 °F 88% 29.66 in 8.0 mi South 16.1 mph 24.2 mph N/A Rain Light Rain
4:53 AM 62.6 °F - 59.0 °F 88% 29.66 in 8.0 mi South 17.3 mph 24.2 mph N/A Rain Light Rain
4:55 AM 61.7 °F - 59.7 °F 93% 29.66 in 9.0 mi South 15.0 mph 24.2 mph 0.06 in Rain Light Rain
4:57 AM 62.6 °F - 59.0 °F 88% 29.65 in 9.0 mi South 17.3 mph 24.2 mph N/A Rain Light Rain
4:59 AM 62.6 °F - 59.0 °F 88% 29.65 in 9.0 mi South 15.0 mph 24.2 mph N/A Rain Light Rain
5:09 AM 62.6 °F - 59.0 °F 88% 29.65 in 10.0 mi South 15.0 mph 23.0 mph N/A Rain Light Rain
5:13 AM 60.8 °F - 59.0 °F 94% 29.65 in 10.0 mi SSW 17.3 mph - N/A Rain Light Rain
5:16 AM 60.8 °F - 59.0 °F 94% 29.66 in 7.0 mi SSW 16.1 mph - N/A Rain Light Rain
5:21 AM 60.8 °F - 59.0 °F 94% 29.68 in 4.0 mi WSW 15.0 mph 23.0 mph N/A Rain Heavy Rain
5:24 AM 60.8 °F - 59.0 °F 94% 29.67 in 3.0 mi WSW 15.0 mph 23.0 mph N/A Rain Rain
5:25 AM 60.8 °F - 59.0 °F 94% 29.67 in 3.0 mi WSW 16.1 mph 23.0 mph N/A Rain Rain
5:26 AM 60.8 °F - 59.0 °F 94% 29.67 in 3.0 mi WSW 16.1 mph 23.0 mph N/A Rain Heavy Rain
5:29 AM 60.8 °F - 59.0 °F 94% 29.66 in 3.0 mi WSW 13.8 mph 23.0 mph N/A Rain Heavy Rain
5:30 AM 60.8 °F - 59.0 °F 94% 29.66 in 3.0 mi WSW 13.8 mph 23.0 mph N/A Rain Heavy Rain
5:31 AM 60.8 °F - 59.0 °F 94% 29.66 in 4.0 mi WSW 13.8 mph - N/A Rain Heavy Rain
5:32 AM 60.8 °F - 59.0 °F 94% 29.66 in 4.0 mi WSW 12.7 mph - N/A Rain Light Rain
5:55 AM 59.4 °F - 57.0 °F 92% 29.65 in 8.0 mi SSW 9.2 mph - 0.16 in Rain Light Rain
6:55 AM 58.3 °F - 56.8 °F 95% 29.63 in 10.0 mi SW 5.8 mph - 0.05 in Rain Light Rain
7:03 AM 59.0 °F - 57.2 °F 94% 29.62 in 10.0 mi SSW 5.8 mph - N/A   Mostly Cloudy
7:33 AM 57.2 °F - 57.2 °F 100% 29.62 in 10.0 mi Calm Calm - N/A   Overcast
7:42 AM 57.2 °F - 57.2 °F 100% 29.62 in 10.0 mi Calm Calm - N/A   Overcast
7:49 AM 57.2 °F - 57.2 °F 100% 29.62 in 10.0 mi Calm Calm - N/A   Overcast
7:55 AM 57.9 °F - 56.8 °F 96% 29.62 in 10.0 mi Calm Calm - 0.00 in   Overcast
8:55 AM 58.6 °F - 57.7 °F 97% 29.60 in 10.0 mi Calm Calm - N/A   Overcast
9:55 AM 59.7 °F - 58.5 °F 96% 29.58 in 10.0 mi Calm Calm - N/A   Overcast
9:59 AM 60.8 °F - 59.0 °F 94% 29.59 in 10.0 mi Calm Calm - N/A   Overcast
10:55 AM 61.0 °F - 58.5 °F 91% 29.56 in 10.0 mi Calm Calm - N/A   Overcast
11:42 AM 62.6 °F - 59.0 °F 88% 29.53 in 10.0 mi Calm Calm - N/A   Overcast
11:50 AM 62.6 °F - 59.0 °F 88% 29.53 in 10.0 mi NNW 4.6 mph - N/A Rain Light Rain
11:52 AM 62.6 °F - 59.0 °F 88% 29.54 in 10.0 mi NNW 6.9 mph - N/A Rain Light Rain
11:55 AM 61.5 °F - 58.8 °F 91% 29.54 in 10.0 mi NNW 12.7 mph - 0.00 in Rain Light Rain
11:56 AM 60.8 °F - 59.0 °F 94% 29.54 in 10.0 mi NNW 12.7 mph - N/A Rain Light Rain
11:58 AM 60.8 °F - 59.0 °F 94% 29.54 in 8.0 mi North 8.1 mph - N/A Rain Light Rain
12:10 PM 59.0 °F - 59.0 °F 100% 29.55 in 7.0 mi NNW 11.5 mph - N/A Rain Light Rain
12:12 PM 59.0 °F - 57.2 °F 94% 29.55 in 8.0 mi NW 15.0 mph 21.9 mph N/A Rain Light Rain
12:13 PM 59.0 °F - 57.2 °F 94% 29.55 in 8.0 mi NW 15.0 mph 21.9 mph N/A Rain Light Rain
12:14 PM 59.0 °F - 57.2 °F 94% 29.55 in 8.0 mi NW 12.7 mph 21.9 mph N/A Rain Light Rain
12:15 PM 59.0 °F - 57.2 °F 94% 29.56 in 9.0 mi NNW 11.5 mph 21.9 mph N/A Rain Light Rain
12:18 PM 57.2 °F - 55.4 °F 94% 29.56 in 10.0 mi NW 11.5 mph 20.7 mph N/A Rain Light Rain
12:21 PM 57.2 °F - 55.4 °F 94% 29.56 in 10.0 mi NW 10.4 mph 20.7 mph N/A Rain Light Rain
12:27 PM 57.2 °F - 55.4 °F 94% 29.56 in 10.0 mi NNW 11.5 mph - N/A Rain Light Rain
12:34 PM 55.4 °F - 53.6 °F 94% 29.56 in 10.0 mi NW 10.4 mph - N/A   Overcast
12:38 PM 55.4 °F - 53.6 °F 94% 29.56 in 10.0 mi NNW 12.7 mph - N/A   Overcast
12:55 PM 56.8 °F - 54.5 °F 92% 29.57 in 10.0 mi NW 12.7 mph - 0.03 in   Overcast
1:02 PM 57.2 °F - 53.6 °F 88% 29.57 in 10.0 mi NW 13.8 mph - N/A   Overcast
1:03 PM 57.2 °F - 53.6 °F 88% 29.57 in 10.0 mi NW 12.7 mph - N/A   Overcast
1:21 PM 57.2 °F - 53.6 °F 88% 29.58 in 10.0 mi NW 10.4 mph - N/A   Overcast
1:29 PM 57.2 °F - 53.6 °F 88% 29.58 in 10.0 mi NW 11.5 mph - N/A   Overcast
1:37 PM 57.2 °F - 53.6 °F 88% 29.58 in 10.0 mi NW 12.7 mph - N/A   Overcast
1:44 PM 55.4 °F - 53.6 °F 94% 29.59 in 10.0 mi NW 9.2 mph - N/A   Mostly Cloudy
1:55 PM 55.9 °F - 52.5 °F 88% 29.59 in 10.0 mi WNW 11.5 mph - N/A   Mostly Cloudy
2:14 PM 55.4 °F - 51.8 °F 88% 29.61 in 10.0 mi WNW 9.2 mph - N/A   Overcast
2:16 PM 55.4 °F - 51.8 °F 88% 29.61 in 10.0 mi WNW 13.8 mph - N/A Rain Light Rain
2:55 PM 54.0 °F - 50.5 °F 88% 29.62 in 10.0 mi NW 16.1 mph - 0.00 in   Light Drizzle
2:59 PM 53.6 °F - 50.0 °F 88% 29.63 in 10.0 mi NW 15.0 mph - N/A Rain Light Rain
3:12 PM 53.6 °F - 50.0 °F 88% 29.65 in 10.0 mi NNW 19.6 mph 25.3 mph N/A   Overcast
3:19 PM 51.8 °F - 48.2 °F 88% 29.65 in 10.0 mi NNW 25.3 mph 31.1 mph N/A Rain Light Rain
3:21 PM 51.8 °F - 46.4 °F 82% 29.65 in 10.0 mi North 21.9 mph 31.1 mph N/A Rain Light Rain
3:22 PM 51.8 °F - 46.4 °F 82% 29.65 in 10.0 mi NNW 23.0 mph 34.5 mph N/A Rain Light Rain
3:24 PM 51.8 °F - 46.4 °F 82% 29.66 in 10.0 mi NNW 19.6 mph 34.5 mph N/A Rain Light Rain
3:26 PM 51.8 °F - 46.4 °F 82% 29.66 in 10.0 mi NNW 20.7 mph 34.5 mph N/A Rain Light Rain
3:27 PM 51.8 °F - 46.4 °F 82% 29.67 in 10.0 mi NNW 20.7 mph 34.5 mph N/A Rain Light Rain
3:55 PM 50.0 °F - 45.7 °F 85% 29.68 in 10.0 mi North 16.1 mph - 0.01 in Rain Light Rain
4:03 PM 50.0 °F - 46.4 °F 87% 29.68 in 10.0 mi North 17.3 mph - N/A Rain Light Rain
4:07 PM 50.0 °F - 44.6 °F 82% 29.69 in 10.0 mi NNW 15.0 mph - N/A Rain Rain
4:34 PM 50.0 °F - 44.6 °F 82% 29.72 in 10.0 mi NNW 12.7 mph - N/A   Overcast
4:55 PM 49.1 °F - 45.5 °F 87% 29.74 in 10.0 mi NNW 6.9 mph - 0.01 in   Overcast
5:03 PM 48.2 °F - 46.4 °F 93% 29.74 in 10.0 mi NW 10.4 mph - N/A   Overcast
5:13 PM 50.0 °F - 44.6 °F 82% 29.75 in 10.0 mi NW 17.3 mph 24.2 mph N/A   Overcast
5:16 PM 50.0 °F - 42.8 °F 76% 29.75 in 10.0 mi NW 19.6 mph 25.3 mph N/A Rain Light Rain
5:18 PM 50.0 °F - 42.8 °F 76% 29.75 in 10.0 mi NW 20.7 mph 27.6 mph N/A Rain Light Rain
5:21 PM 48.2 °F - 42.8 °F 82% 29.76 in 10.0 mi NW 16.1 mph 27.6 mph N/A Rain Rain
5:38 PM 48.2 °F - 42.8 °F 82% 29.78 in 10.0 mi NNW 17.3 mph 23.0 mph N/A   Overcast
5:55 PM 47.8 °F - 41.2 °F 78% 29.79 in 10.0 mi NNW 15.0 mph - 0.01 in   Overcast
6:39 PM 46.4 °F 39.8 °F 39.2 °F 76% 29.82 in 10.0 mi NNW 16.1 mph 27.6 mph N/A   Overcast
6:55 PM 46.4 °F 39.5 °F 37.9 °F 72% 29.83 in 10.0 mi NNW 17.3 mph 27.6 mph N/A   Overcast
7:55 PM 45.5 °F 38.3 °F 37.2 °F 73% 29.88 in 10.0 mi NNW 17.3 mph 23.0 mph N/A   Overcast
8:55 PM 45.5 °F 38.6 °F 37.2 °F 73% 29.91 in 10.0 mi NNW 16.1 mph 24.2 mph N/A   Overcast
9:24 PM 44.6 °F 37.2 °F 37.4 °F 76% 29.93 in 10.0 mi NNW 17.3 mph 24.2 mph N/A   Overcast
9:55 PM 44.8 °F 37.7 °F 36.3 °F 72% 29.95 in 10.0 mi NNW 16.1 mph - N/A   Overcast
10:54 PM 44.6 °F 36.9 °F 33.8 °F 66% 29.98 in 10.0 mi NNW 18.4 mph 25.3 mph N/A   Overcast
10:55 PM 43.9 °F 36.2 °F 34.3 °F 69% 29.98 in 10.0 mi NNW 17.3 mph 25.3 mph N/A   Overcast
11:46 PM 42.8 °F 35.8 °F 33.8 °F 70% 30.00 in 10.0 mi NW 13.8 mph - N/A   Overcast
11:55 PM 42.6 °F 36.3 °F 33.8 °F 71% 30.00 in 10.0 mi NNW 11.5 mph - N/A   Overcast